Weather in Tallahassee

United States     30°26′16″N   84°16′50″W
В апреле 2022 года жителям России запретили посещать сайт meteo.paraplan.net по решению Генеральной прокуратуры. Аудитория сайта уменьшилась в 10 раз. Владельцы сайта не видят смысла в поддержке погодного сервера в таких условиях. Сайт будет закрыт в октябре.
temp.,
°C
wind,
m/s
gust,
m/s
humid.,
%
clouds,
%
prec.,
mm/h
press.,
hPa
HPBL,
m
4 october, tue
tue423:00+16ene310740 0.0 1019525
02:00+14ne268272 0.0 1018162
05:00+13ne26895 0.0 1018158
08:00+13ne29915 0.0 1019269
11:00+21ene46497 0.0 1020951
14:00+25ne453515 0.0 10181560
17:00+25ne3432100 0.0 10161736
20:00+19ene115099 0.0 101711
5 october, wed
wed523:00+17ene115184 0.0 101811
02:00+16ese245186 0.0 101874
05:00+14sse116543 0.0 101711
08:00+14n1170100 0.0 101811
11:00+24nw124294 0.0 1019526
14:00+28nw223085 0.0 10171744
17:00+29nw132977 0.0 10152105
20:00+21ssw114965 0.0 101616
6 october, thu
thu623:00+18wsw276528 0.0 1018125
02:00+17wnw22725 0.0 101818
05:00+16wnw11791 0.0 101813
08:00+16nw11780 0.0 101915
11:00+25wnw11430 0.0 1020493
14:00+30nw22280 0.0 10181956
17:00+30nnw22250 0.0 10172203
20:00+21ssw36590 0.0 1018107
7 october, fri
fri723:00+19sw227699 0.0 101925
02:00+18wnw22620 0.0 101930
05:00+16nnw11560 0.0 101911
08:00+16n115752 0.0 102011
11:00+26nnw11332 0.0 1021378
14:00+31nnw22204 0.0 10191865
17:00+31n222076 0.0 10172136
20:00+23ne0136100 0.0 101812
8 october, sat
sat823:00+20wsw2252100 0.0 101914
02:00+19wnw1152100 0.0 101911
05:00+18nne2345100 0.0 101951
08:00+17nne2551100 0.0 102199
11:00+25nne3538100 0.0 1022510
14:00+31nne232799 0.0 10191768
17:00+30n332794 0.0 10182463
20:00+24n234261 0.0 101945